Time,TemperatureF,DewpointF,PressureIn,WindDirection,WindDirectionDegrees,WindSpeedMPH,WindSpeedGustMPH,Humidity,HourlyPrecipIn,Conditions,Clouds,dailyrainin,SoftwareType,DateUTC
2013-02-22 00:00:00,24.1,18.5,-100.00,East,94,0.0,1.0,79,0.00,,,0.00,meteohub,2013-02-22 05:00:00,
2013-02-22 00:05:00,24.1,18.9,-100.00,East,93,0.0,1.0,80,0.00,,,0.00,meteohub,2013-02-22 05:05:00,
2013-02-22 00:10:00,24.1,18.9,-100.00,East,94,0.0,1.0,80,0.00,,,0.00,meteohub,2013-02-22 05:10:00,
2013-02-22 00:15:00,24.1,18.9,-100.00,SE,129,2.0,2.0,80,0.00,,,0.00,meteohub,2013-02-22 05:15:00,
2013-02-22 00:20:00,24.1,18.9,-100.00,ENE,70,0.0,4.0,80,0.00,,,0.00,meteohub,2013-02-22 05:20:00,
2013-02-22 00:25:00,24.3,19.0,-100.00,ESE,103,1.0,4.0,80,0.00,,,0.00,meteohub,2013-02-22 05:25:00,
2013-02-22 00:30:00,24.1,18.9,-100.00,NE,56,0.0,4.0,80,0.00,,,0.00,meteohub,2013-02-22 05:30:00,
2013-02-22 00:35:00,24.1,18.9,-100.00,ENE,75,1.0,2.0,80,0.00,,,0.00,meteohub,2013-02-22 05:35:00,
2013-02-22 00:40:00,24.1,18.9,-100.00,ENE,65,0.0,2.0,80,0.00,,,0.00,meteohub,2013-02-22 05:40:00,
2013-02-22 00:45:00,24.1,18.9,-100.00,ENE,76,0.0,2.0,80,0.00,,,0.00,meteohub,2013-02-22 05:45:00,
2013-02-22 00:50:00,24.1,18.9,-100.00,East,97,0.0,2.0,80,0.00,,,0.00,meteohub,2013-02-22 05:50:00,
2013-02-22 00:56:00,24.1,18.9,-100.00,SE,125,0.0,2.0,80,0.00,,,0.00,meteohub,2013-02-22 05:56:00,
2013-02-22 01:01:00,24.1,18.9,-100.00,ESE,115,2.0,2.0,80,0.00,,,0.00,meteohub,2013-02-22 06:01:00,
2013-02-22 01:06:00,24.1,18.9,-100.00,East,89,3.0,4.0,80,0.00,,,0.00,meteohub,2013-02-22 06:06:00,
2013-02-22 01:11:00,24.1,18.9,-100.00,ESE,103,0.0,4.0,80,0.00,,,0.00,meteohub,2013-02-22 06:11:00,
2013-02-22 01:16:00,24.1,18.5,-100.00,East,96,1.0,4.0,79,0.00,,,0.00,meteohub,2013-02-22 06:16:00,
2013-02-22 01:21:00,23.9,18.7,-100.00,East,97,2.0,3.0,80,0.00,,,0.00,meteohub,2013-02-22 06:21:00,
2013-02-22 01:26:00,23.9,18.3,-100.00,ENE,75,1.0,2.0,79,0.00,,,0.00,meteohub,2013-02-22 06:26:00,
2013-02-22 01:31:00,23.9,18.7,-100.00,East,98,0.0,2.0,80,0.00,,,0.00,meteohub,2013-02-22 06:31:00,
2013-02-22 01:36:00,23.9,18.3,-100.00,East,101,1.0,2.0,79,0.00,,,0.00,meteohub,2013-02-22 06:36:00,
2013-02-22 01:41:00,23.7,18.1,-100.00,SE,131,2.0,3.0,79,0.00,,,0.00,meteohub,2013-02-22 06:41:00,
2013-02-22 01:46:00,23.7,18.5,-100.00,ENE,65,1.0,4.0,80,0.00,,,0.00,meteohub,2013-02-22 06:46:00,
2013-02-22 01:51:00,23.9,18.7,-100.00,East,84,0.0,4.0,80,0.00,,,0.00,meteohub,2013-02-22 06:51:00,
2013-02-22 01:56:00,23.9,18.3,-100.00,East,86,3.0,4.0,79,0.00,,,0.00,meteohub,2013-02-22 06:56:00,
2013-02-22 02:01:00,23.7,18.5,-100.00,ENE,70,1.0,4.0,80,0.00,,,0.00,meteohub,2013-02-22 07:01:00,
2013-02-22 02:06:00,23.7,18.1,-100.00,East,98,1.0,5.0,79,0.00,,,0.00,meteohub,2013-02-22 07:06:00,
2013-02-22 02:11:00,23.7,18.5,-100.00,ENE,78,1.0,5.0,80,0.00,,,0.00,meteohub,2013-02-22 07:11:00,
2013-02-22 02:16:00,23.7,18.5,-100.00,ENE,67,1.0,5.0,80,0.00,,,0.00,meteohub,2013-02-22 07:16:00,
2013-02-22 02:21:00,23.7,18.5,-100.00,ESE,107,2.0,4.0,80,0.00,,,0.00,meteohub,2013-02-22 07:21:00,
2013-02-22 02:26:00,23.7,18.7,-100.00,ESE,103,3.0,5.0,81,0.00,,,0.00,meteohub,2013-02-22 07:26:00,
2013-02-22 02:31:00,23.7,18.5,-100.00,East,93,1.0,5.0,80,0.00,,,0.00,meteohub,2013-02-22 07:31:00,
2013-02-22 02:36:00,23.7,18.5,-100.00,East,79,2.0,5.0,80,0.00,,,0.00,meteohub,2013-02-22 07:36:00,
2013-02-22 02:41:00,23.7,18.5,-100.00,SE,124,1.0,5.0,80,0.00,,,0.00,meteohub,2013-02-22 07:41:00,
2013-02-22 02:46:00,23.7,18.7,-100.00,East,94,1.0,4.0,81,0.00,,,0.00,meteohub,2013-02-22 07:46:00,
2013-02-22 02:51:00,23.7,18.7,-100.00,ESE,123,2.0,4.0,81,0.00,,,0.00,meteohub,2013-02-22 07:51:00,
2013-02-22 02:56:00,23.7,19.0,-100.00,East,83,1.0,4.0,82,0.00,,,0.00,meteohub,2013-02-22 07:56:00,
2013-02-22 03:01:00,23.5,18.5,-100.00,East,93,1.0,4.0,81,0.00,,,0.00,meteohub,2013-02-22 08:01:00,
2013-02-22 03:06:00,23.5,18.5,-100.00,ENE,77,1.0,5.0,81,0.00,,,0.00,meteohub,2013-02-22 08:06:00,
2013-02-22 03:12:00,23.5,18.9,-100.00,ESE,103,2.0,5.0,82,0.00,,,0.00,meteohub,2013-02-22 08:12:00,
2013-02-22 03:17:00,23.5,18.5,-100.00,East,101,2.0,5.0,81,0.00,,,0.00,meteohub,2013-02-22 08:17:00,
2013-02-22 03:22:00,23.5,18.9,-100.00,East,100,2.0,5.0,82,0.00,,,0.00,meteohub,2013-02-22 08:22:00,
2013-02-22 03:27:00,23.4,18.7,-100.00,ESE,105,5.0,5.0,82,0.00,,,0.00,meteohub,2013-02-22 08:27:00,
2013-02-22 03:32:00,23.4,18.7,-100.00,ENE,76,3.0,5.0,82,0.00,,,0.00,meteohub,2013-02-22 08:32:00,
2013-02-22 03:37:00,23.4,18.3,-100.00,ESE,103,3.0,9.0,81,0.00,,,0.00,meteohub,2013-02-22 08:37:00,
2013-02-22 03:42:00,23.4,18.7,-100.00,ENE,66,1.0,9.0,82,0.00,,,0.00,meteohub,2013-02-22 08:42:00,
2013-02-22 03:47:00,23.4,18.7,-100.00,NE,44,2.0,9.0,82,0.00,,,0.00,meteohub,2013-02-22 08:47:00,
2013-02-22 03:52:00,23.2,18.5,-100.00,ESE,122,2.0,5.0,82,0.00,,,0.00,meteohub,2013-02-22 08:52:00,
2013-02-22 03:57:00,23.4,18.7,-100.00,ENE,75,1.0,5.0,82,0.00,,,0.00,meteohub,2013-02-22 08:57:00,
2013-02-22 04:02:00,23.2,18.5,-100.00,ENE,60,3.0,5.0,82,0.00,,,0.00,meteohub,2013-02-22 09:02:00,
2013-02-22 04:07:00,23.2,18.5,-100.00,ENE,69,1.0,5.0,82,0.00,,,0.00,meteohub,2013-02-22 09:07:00,
2013-02-22 04:12:00,23.2,18.5,-100.00,ENE,67,5.0,6.0,82,0.00,,,0.00,meteohub,2013-02-22 09:12:00,
2013-02-22 04:17:00,23.0,18.0,-100.00,ENE,65,6.0,6.0,81,0.00,,,0.00,meteohub,2013-02-22 09:17:00,
2013-02-22 04:22:00,22.8,18.1,-100.00,ENE,70,2.0,6.0,82,0.00,,,0.00,meteohub,2013-02-22 09:22:00,
2013-02-22 04:27:00,22.8,18.1,-100.00,ENE,72,2.0,6.0,82,0.00,,,0.00,meteohub,2013-02-22 09:27:00,
2013-02-22 04:32:00,22.8,18.1,-100.00,ENE,77,1.0,6.0,82,0.00,,,0.00,meteohub,2013-02-22 09:32:00,
2013-02-22 04:37:00,22.6,18.0,-100.00,ENE,77,3.0,5.0,82,0.00,,,0.00,meteohub,2013-02-22 09:37:00,
2013-02-22 04:42:00,22.6,18.0,-100.00,ENE,76,1.0,4.0,82,0.00,,,0.00,meteohub,2013-02-22 09:42:00,
2013-02-22 04:47:00,22.6,18.0,-100.00,ENE,70,0.0,4.0,82,0.00,,,0.00,meteohub,2013-02-22 09:47:00,
2013-02-22 04:52:00,22.5,18.1,-100.00,ENE,62,2.0,4.0,83,0.00,,,0.00,meteohub,2013-02-22 09:52:00,
2013-02-22 04:57:00,22.5,17.8,-100.00,East,90,2.0,3.0,82,0.00,,,0.00,meteohub,2013-02-22 09:57:00,
2013-02-22 05:02:00,22.5,17.8,-100.00,NE,49,2.0,4.0,82,0.00,,,0.00,meteohub,2013-02-22 10:02:00,
2013-02-22 05:07:00,22.5,17.8,-100.00,NE,46,4.0,4.0,82,0.00,,,0.00,meteohub,2013-02-22 10:07:00,
2013-02-22 05:12:00,22.5,17.8,-100.00,East,94,0.0,4.0,82,0.00,,,0.00,meteohub,2013-02-22 10:12:00,
2013-02-22 05:17:00,22.5,17.8,-100.00,East,91,0.0,4.0,82,0.00,,,0.00,meteohub,2013-02-22 10:17:00,
2013-02-22 05:22:00,22.5,18.1,-100.00,East,79,0.0,4.0,83,0.00,,,0.00,meteohub,2013-02-22 10:22:00,
2013-02-22 05:27:00,22.5,18.1,-100.00,East,79,2.0,4.0,83,0.00,,,0.00,meteohub,2013-02-22 10:27:00,
2013-02-22 05:32:00,22.5,17.8,-100.00,ENE,66,0.0,3.0,82,0.00,,,0.00,meteohub,2013-02-22 10:32:00,
2013-02-22 05:37:00,22.6,18.3,-100.00,East,96,2.0,5.0,83,0.00,,,0.00,meteohub,2013-02-22 10:37:00,
2013-02-22 05:42:00,22.6,18.3,-100.00,ENE,63,0.0,5.0,83,0.00,,,0.00,meteohub,2013-02-22 10:42:00,
2013-02-22 05:47:00,22.6,18.3,-100.00,ENE,77,2.0,5.0,83,0.00,,,0.00,meteohub,2013-02-22 10:47:00,
2013-02-22 05:52:00,22.6,18.3,-100.00,ENE,72,2.0,3.0,83,0.00,,,0.00,meteohub,2013-02-22 10:52:00,
2013-02-22 05:57:00,22.6,18.3,-100.00,ENE,62,4.0,5.0,83,0.00,,,0.00,meteohub,2013-02-22 10:57:00,
2013-02-22 06:02:00,22.6,18.3,-100.00,ENE,67,2.0,5.0,83,0.00,,,0.00,meteohub,2013-02-22 11:02:00,
2013-02-22 06:07:00,22.6,18.3,-100.00,NE,35,2.0,5.0,83,0.00,,,0.00,meteohub,2013-02-22 11:07:00,
2013-02-22 06:12:00,22.6,18.5,-100.00,ENE,64,1.0,5.0,84,0.00,,,0.00,meteohub,2013-02-22 11:12:00,
2013-02-22 06:17:00,22.6,18.5,-100.00,ENE,71,2.0,5.0,84,0.00,,,0.00,meteohub,2013-02-22 11:17:00,
2013-02-22 06:23:00,22.8,18.7,-100.00,NNE,33,2.0,5.0,84,0.00,,,0.00,meteohub,2013-02-22 11:23:00,
2013-02-22 06:28:00,22.8,18.7,-100.00,NE,56,2.0,6.0,84,0.00,,,0.00,meteohub,2013-02-22 11:28:00,
2013-02-22 06:33:00,22.8,18.7,-100.00,ENE,75,2.0,6.0,84,0.00,,,0.00,meteohub,2013-02-22 11:33:00,
2013-02-22 06:38:00,23.0,18.9,-100.00,ENE,60,3.0,5.0,84,0.00,,,0.00,meteohub,2013-02-22 11:38:00,
2013-02-22 06:43:00,23.2,19.0,-100.00,ENE,77,4.0,5.0,84,0.00,,,0.00,meteohub,2013-02-22 11:43:00,
2013-02-22 06:48:00,23.2,19.0,-100.00,ENE,62,2.0,8.0,84,0.00,,,0.00,meteohub,2013-02-22 11:48:00,
2013-02-22 06:53:00,23.2,19.0,-100.00,North,359,4.0,8.0,84,0.00,,,0.00,meteohub,2013-02-22 11:53:00,
2013-02-22 06:58:00,23.4,19.2,-100.00,NE,52,1.0,8.0,84,0.00,,,0.00,meteohub,2013-02-22 11:58:00,
2013-02-22 07:03:00,23.4,19.0,-100.00,NE,56,1.0,8.0,83,0.00,,,0.00,meteohub,2013-02-22 12:03:00,
2013-02-22 07:08:00,23.5,19.2,-100.00,ESE,102,1.0,9.0,83,0.00,,,0.00,meteohub,2013-02-22 12:08:00,
2013-02-22 07:13:00,23.5,19.2,-100.00,ENE,77,1.0,9.0,83,0.00,,,0.00,meteohub,2013-02-22 12:13:00,
2013-02-22 07:18:00,23.5,19.2,-100.00,ENE,76,0.0,9.0,83,0.00,,,0.00,meteohub,2013-02-22 12:18:00,
2013-02-22 07:23:00,23.7,19.4,-100.00,ENE,57,3.0,8.0,83,0.00,,,0.00,meteohub,2013-02-22 12:23:00,
2013-02-22 07:28:00,23.7,19.4,-100.00,East,79,3.0,10.0,83,0.00,,,0.00,meteohub,2013-02-22 12:28:00,
2013-02-22 07:33:00,23.9,19.6,-100.00,ENE,62,2.0,10.0,83,0.00,,,0.00,meteohub,2013-02-22 12:33:00,
2013-02-22 07:38:00,24.1,19.8,-100.00,ENE,63,3.0,10.0,83,0.00,,,0.00,meteohub,2013-02-22 12:38:00,
2013-02-22 07:43:00,24.1,19.8,-100.00,ESE,119,3.0,8.0,83,0.00,,,0.00,meteohub,2013-02-22 12:43:00,
2013-02-22 07:48:00,24.3,19.6,-100.00,NE,45,4.0,6.0,82,0.00,,,0.00,meteohub,2013-02-22 12:48:00,
2013-02-22 07:53:00,24.3,19.6,-100.00,ESE,121,1.0,6.0,82,0.00,,,0.00,meteohub,2013-02-22 12:53:00,
2013-02-22 07:58:00,24.4,19.8,-100.00,East,101,3.0,8.0,82,0.00,,,0.00,meteohub,2013-02-22 12:58:00,
2013-02-22 08:03:00,24.4,19.8,-100.00,East,91,5.0,10.0,82,0.00,,,0.00,meteohub,2013-02-22 13:03:00,
2013-02-22 08:08:00,24.6,19.9,-100.00,ENE,74,3.0,10.0,82,0.00,,,0.00,meteohub,2013-02-22 13:08:00,
2013-02-22 08:13:00,24.6,19.6,-100.00,ENE,66,6.0,10.0,81,0.00,,,0.00,meteohub,2013-02-22 13:13:00,
2013-02-22 08:18:00,24.6,19.9,-100.00,ESE,117,4.0,10.0,82,0.00,,,0.00,meteohub,2013-02-22 13:18:00,
2013-02-22 08:23:00,24.8,20.1,-100.00,NE,56,6.0,9.0,82,0.00,,,0.00,meteohub,2013-02-22 13:23:00,
2013-02-22 08:28:00,24.8,20.1,-100.00,East,82,4.0,9.0,82,0.00,,,0.00,meteohub,2013-02-22 13:28:00,
2013-02-22 08:33:00,24.8,20.1,-100.00,ENE,65,0.0,8.0,82,0.00,,,0.00,meteohub,2013-02-22 13:33:00,
2013-02-22 08:38:00,25.0,20.3,-100.00,NNE,23,11.0,11.0,82,0.00,,,0.00,meteohub,2013-02-22 13:38:00,
2013-02-22 08:43:00,25.0,19.9,-100.00,SSE,158,1.0,12.0,81,0.00,,,0.00,meteohub,2013-02-22 13:43:00,
2013-02-22 08:48:00,25.2,20.1,-100.00,East,89,1.0,12.0,81,0.00,,,0.00,meteohub,2013-02-22 13:48:00,
2013-02-22 08:53:00,25.2,20.1,-100.00,NE,53,1.0,12.0,81,0.00,,,0.00,meteohub,2013-02-22 13:53:00,
2013-02-22 08:59:00,25.3,20.3,-100.00,ESE,105,3.0,9.0,81,0.00,,,0.00,meteohub,2013-02-22 13:59:00,
2013-02-22 09:04:00,25.3,20.3,-100.00,East,95,2.0,9.0,81,0.00,,,0.00,meteohub,2013-02-22 14:04:00,
2013-02-22 09:09:00,25.3,20.3,-100.00,ENE,68,2.0,9.0,81,0.00,,,0.00,meteohub,2013-02-22 14:09:00,
2013-02-22 09:14:00,25.5,20.5,-100.00,ESE,114,1.0,9.0,81,0.00,,,0.00,meteohub,2013-02-22 14:14:00,
2013-02-22 09:19:00,25.5,20.5,-100.00,ENE,67,4.0,9.0,81,0.00,,,0.00,meteohub,2013-02-22 14:19:00,
2013-02-22 09:24:00,25.7,20.5,-100.00,ESE,109,0.0,9.0,80,0.00,,,0.00,meteohub,2013-02-22 14:24:00,
2013-02-22 09:29:00,25.9,20.5,-100.00,East,85,1.0,7.0,80,0.00,,,0.00,meteohub,2013-02-22 14:29:00,
2013-02-22 09:34:00,26.1,20.7,-100.00,NE,48,4.0,7.0,80,0.00,,,0.00,meteohub,2013-02-22 14:34:00,
2013-02-22 09:39:00,26.1,20.7,-100.00,NE,53,6.0,10.0,80,0.00,,,0.00,meteohub,2013-02-22 14:39:00,
2013-02-22 09:44:00,26.2,20.7,-100.00,East,97,3.0,10.0,79,0.00,,,0.00,meteohub,2013-02-22 14:44:00,
2013-02-22 09:49:00,26.4,20.8,-100.00,North,1,3.0,10.0,79,0.00,,,0.00,meteohub,2013-02-22 14:49:00,
2013-02-22 09:54:00,26.4,21.0,-100.00,NE,56,3.0,10.0,80,0.00,,,0.00,meteohub,2013-02-22 14:54:00,
2013-02-22 09:59:00,26.8,21.2,-100.00,ENE,75,6.0,10.0,79,0.00,,,0.00,meteohub,2013-02-22 14:59:00,
2013-02-22 10:04:00,27.0,21.4,-100.00,ENE,74,5.0,7.0,79,0.00,,,0.00,meteohub,2013-02-22 15:04:00,
2013-02-22 10:09:00,27.1,21.2,-100.00,ESE,114,5.0,7.0,78,0.00,,,0.00,meteohub,2013-02-22 15:09:00,
2013-02-22 10:14:00,27.3,21.4,-100.00,ESE,109,1.0,9.0,78,0.00,,,0.00,meteohub,2013-02-22 15:14:00,
2013-02-22 10:19:00,27.5,21.2,-100.00,ENE,74,2.0,9.0,77,0.00,,,0.00,meteohub,2013-02-22 15:19:00,
2013-02-22 10:24:00,27.9,21.6,-100.00,ENE,63,4.0,10.0,77,0.00,,,0.00,meteohub,2013-02-22 15:24:00,
2013-02-22 10:29:00,28.0,21.7,-100.00,ENE,78,2.0,10.0,77,0.00,,,0.00,meteohub,2013-02-22 15:29:00,
2013-02-22 10:34:00,28.2,21.9,-100.00,East,84,5.0,10.0,77,0.00,,,0.00,meteohub,2013-02-22 15:34:00,
2013-02-22 10:39:00,28.4,21.7,-100.00,East,82,7.0,10.0,76,0.00,,,0.00,meteohub,2013-02-22 15:39:00,
2013-02-22 10:44:00,28.6,21.9,-100.00,NNE,30,4.0,10.0,76,0.00,,,0.00,meteohub,2013-02-22 15:44:00,
2013-02-22 10:49:00,28.8,22.1,-100.00,NE,54,5.0,10.0,76,0.00,,,0.00,meteohub,2013-02-22 15:49:00,
2013-02-22 10:54:00,28.9,22.1,-100.00,ENE,69,2.0,10.0,75,0.00,,,0.00,meteohub,2013-02-22 15:54:00,
2013-02-22 10:59:00,29.1,21.9,-100.00,ENE,58,4.0,11.0,74,0.00,,,0.00,meteohub,2013-02-22 15:59:00,
2013-02-22 11:04:00,29.3,22.3,-100.00,NE,53,5.0,11.0,75,0.00,,,0.00,meteohub,2013-02-22 16:04:00,
2013-02-22 11:09:00,29.5,22.3,-100.00,ENE,77,7.0,11.0,74,0.00,,,0.00,meteohub,2013-02-22 16:09:00,
2013-02-22 11:14:00,29.7,22.5,-100.00,East,90,4.0,10.0,74,0.00,,,0.00,meteohub,2013-02-22 16:14:00,
2013-02-22 11:19:00,29.7,22.1,-100.00,East,96,1.0,10.0,73,0.00,,,0.00,meteohub,2013-02-22 16:19:00,
2013-02-22 11:24:00,29.8,22.3,-100.00,ENE,63,5.0,9.0,73,0.00,,,0.00,meteohub,2013-02-22 16:24:00,
2013-02-22 11:29:00,29.8,22.6,-100.00,NE,35,8.0,13.0,74,0.00,,,0.00,meteohub,2013-02-22 16:29:00,
2013-02-22 11:34:00,29.8,22.3,-100.00,ENE,67,7.0,13.0,73,0.00,,,0.00,meteohub,2013-02-22 16:34:00,
2013-02-22 11:39:00,30.0,22.5,-100.00,East,90,4.0,14.0,73,0.00,,,0.00,meteohub,2013-02-22 16:39:00,
2013-02-22 11:44:00,30.0,22.5,-100.00,ENE,63,3.0,14.0,73,0.00,,,0.00,meteohub,2013-02-22 16:44:00,
2013-02-22 11:49:00,30.0,22.5,-100.00,ENE,63,3.0,14.0,73,0.00,,,0.00,meteohub,2013-02-22 16:49:00,
2013-02-22 11:54:00,30.4,22.8,-100.00,SE,133,3.0,14.0,73,0.00,,,0.00,meteohub,2013-02-22 16:54:00,
2013-02-22 11:59:00,30.6,22.6,-100.00,NE,49,4.0,10.0,72,0.00,,,0.00,meteohub,2013-02-22 16:59:00,
2013-02-22 12:05:00,30.6,23.0,-100.00,ESE,105,1.0,10.0,73,0.00,,,0.00,meteohub,2013-02-22 17:05:00,
2013-02-22 12:10:00,30.6,23.0,-100.00,East,83,3.0,10.0,73,0.00,,,0.00,meteohub,2013-02-22 17:10:00,
2013-02-22 12:15:00,30.6,23.0,-100.00,East,97,1.0,13.0,73,0.00,,,0.00,meteohub,2013-02-22 17:15:00,
2013-02-22 12:20:00,30.6,23.0,-100.00,North,11,3.0,13.0,73,0.00,,,0.00,meteohub,2013-02-22 17:20:00,
2013-02-22 12:25:00,30.6,23.0,-100.00,NE,56,5.0,13.0,73,0.00,,,0.00,meteohub,2013-02-22 17:25:00,
2013-02-22 12:30:00,30.6,22.6,-100.00,East,98,2.0,11.0,72,0.00,,,0.00,meteohub,2013-02-22 17:30:00,
2013-02-22 12:35:00,30.6,23.0,-100.00,ENE,71,2.0,11.0,73,0.00,,,0.00,meteohub,2013-02-22 17:35:00,
2013-02-22 12:40:00,30.7,22.8,-100.00,East,82,1.0,9.0,72,0.00,,,0.00,meteohub,2013-02-22 17:40:00,
2013-02-22 12:45:00,30.9,23.4,-100.00,East,83,2.0,9.0,73,0.00,,,0.00,meteohub,2013-02-22 17:45:00,
2013-02-22 12:50:00,30.9,23.4,-100.00,NE,46,4.0,9.0,73,0.00,,,0.00,meteohub,2013-02-22 17:50:00,
2013-02-22 12:55:00,31.3,23.7,-100.00,NE,54,2.0,9.0,73,0.00,,,0.00,meteohub,2013-02-22 17:55:00,
2013-02-22 13:00:00,31.3,23.4,-100.00,SE,124,4.0,9.0,72,0.00,,,0.00,meteohub,2013-02-22 18:00:00,
2013-02-22 13:05:00,31.5,23.5,-100.00,East,80,1.0,8.0,72,0.00,,,0.00,meteohub,2013-02-22 18:05:00,
2013-02-22 13:10:00,31.6,23.7,-100.00,ENE,75,3.0,8.0,72,0.00,,,0.00,meteohub,2013-02-22 18:10:00,
2013-02-22 13:15:00,31.6,23.7,-100.00,NNE,27,3.0,8.0,72,0.00,,,0.00,meteohub,2013-02-22 18:15:00,
2013-02-22 13:20:00,31.6,23.7,-100.00,NE,55,1.0,8.0,72,0.00,,,0.00,meteohub,2013-02-22 18:20:00,
2013-02-22 13:25:00,31.6,23.7,-100.00,NE,56,3.0,8.0,72,0.00,,,0.00,meteohub,2013-02-22 18:25:00,
2013-02-22 13:30:00,31.6,23.7,-100.00,NNE,23,2.0,8.0,72,0.00,,,0.00,meteohub,2013-02-22 18:30:00,
2013-02-22 13:35:00,31.6,23.9,-100.00,NE,35,0.0,6.0,73,0.00,,,0.00,meteohub,2013-02-22 18:35:00,
2013-02-22 13:40:00,31.8,23.9,-100.00,NNE,13,3.0,6.0,72,0.00,,,0.00,meteohub,2013-02-22 18:40:00,
2013-02-22 13:45:00,31.8,23.9,-100.00,East,84,2.0,7.0,72,0.00,,,0.00,meteohub,2013-02-22 18:45:00,
2013-02-22 13:50:00,31.8,23.9,-100.00,East,90,2.0,7.0,72,0.00,,,0.00,meteohub,2013-02-22 18:50:00,
2013-02-22 13:55:00,31.8,23.9,-100.00,NE,56,5.0,7.0,72,0.00,,,0.00,meteohub,2013-02-22 18:55:00,
2013-02-22 14:00:00,31.8,24.1,-100.00,ENE,72,5.0,7.0,73,0.00,,,0.00,meteohub,2013-02-22 19:00:00,
2013-02-22 14:05:00,31.8,24.1,-100.00,ENE,60,4.0,7.0,73,0.00,,,0.00,meteohub,2013-02-22 19:05:00,
2013-02-22 14:10:00,31.8,24.4,-100.00,ENE,77,1.0,7.0,74,0.00,,,0.00,meteohub,2013-02-22 19:10:00,
2013-02-22 14:15:00,31.8,25.2,-100.00,ESE,113,3.0,8.0,76,0.00,,,0.00,meteohub,2013-02-22 19:15:00,
2013-02-22 14:20:00,31.6,25.9,-100.00,East,93,6.0,8.0,79,0.00,,,0.00,meteohub,2013-02-22 19:20:00,
2013-02-22 14:25:00,31.8,26.6,-100.00,East,88,2.0,8.0,81,0.00,,,0.00,meteohub,2013-02-22 19:25:00,
2013-02-22 14:30:00,32.2,27.7,-100.00,East,89,3.0,8.0,83,0.00,,,0.00,meteohub,2013-02-22 19:30:00,
2013-02-22 14:35:00,32.4,28.0,-100.00,ENE,57,4.0,8.0,84,0.00,,,0.00,meteohub,2013-02-22 19:35:00,
2013-02-22 14:40:00,32.2,28.2,-100.00,ENE,70,5.0,11.0,85,0.00,,,0.00,meteohub,2013-02-22 19:40:00,
2013-02-22 14:45:00,32.4,28.4,-100.00,ENE,70,2.0,11.0,85,0.00,,,0.00,meteohub,2013-02-22 19:45:00,
2013-02-22 14:50:00,32.4,28.0,-100.00,ENE,73,5.0,11.0,84,0.00,,,0.00,meteohub,2013-02-22 19:50:00,
2013-02-22 14:55:00,32.5,28.6,-100.00,East,82,2.0,11.0,85,0.00,,,0.00,meteohub,2013-02-22 19:55:00,
2013-02-22 15:00:00,32.4,28.4,-100.00,East,82,8.0,11.0,85,0.00,,,0.00,meteohub,2013-02-22 20:00:00,
2013-02-22 15:05:00,32.4,28.4,-100.00,ENE,58,4.0,11.0,85,0.00,,,0.00,meteohub,2013-02-22 20:05:00,
2013-02-22 15:10:00,32.2,28.4,-100.00,NE,55,3.0,11.0,86,0.00,,,0.00,meteohub,2013-02-22 20:10:00,
2013-02-22 15:15:00,32.2,28.4,-100.00,East,101,5.0,11.0,86,0.00,,,0.00,meteohub,2013-02-22 20:15:00,
2013-02-22 15:20:00,32.2,28.4,-100.00,East,80,1.0,11.0,86,0.00,,,0.00,meteohub,2013-02-22 20:20:00,
2013-02-22 15:25:00,32.4,28.6,-100.00,ENE,78,4.0,11.0,86,0.00,,,0.00,meteohub,2013-02-22 20:25:00,
2013-02-22 15:30:00,32.2,28.4,-100.00,East,82,6.0,11.0,86,0.00,,,0.00,meteohub,2013-02-22 20:30:00,
2013-02-22 15:35:00,32.0,28.2,-100.00,East,94,3.0,10.0,86,0.00,,,0.00,meteohub,2013-02-22 20:35:00,
2013-02-22 15:40:00,32.0,28.2,-100.00,ENE,68,3.0,10.0,86,0.00,,,0.00,meteohub,2013-02-22 20:40:00,
2013-02-22 15:45:00,32.0,28.2,-100.00,East,98,0.0,10.0,86,0.00,,,0.00,meteohub,2013-02-22 20:45:00,
2013-02-22 15:50:00,32.0,28.2,-100.00,NE,38,3.0,9.0,86,0.00,,,0.00,meteohub,2013-02-22 20:50:00,
2013-02-22 15:55:00,32.2,28.4,-100.00,East,99,4.0,9.0,86,0.00,,,0.00,meteohub,2013-02-22 20:55:00,
2013-02-22 16:00:00,32.2,28.4,-100.00,ENE,68,5.0,7.0,86,0.00,,,0.00,meteohub,2013-02-22 21:00:00,
2013-02-22 16:05:00,32.2,28.4,-100.00,East,79,3.0,6.0,86,0.00,,,0.00,meteohub,2013-02-22 21:05:00,
2013-02-22 16:10:00,32.2,28.4,-100.00,ENE,60,1.0,8.0,86,0.00,,,0.00,meteohub,2013-02-22 21:10:00,
2013-02-22 16:15:00,32.4,28.6,-100.00,ENE,73,1.0,8.0,86,0.00,,,0.00,meteohub,2013-02-22 21:15:00,
2013-02-22 16:20:00,32.4,28.6,-100.00,ESE,112,0.0,8.0,86,0.00,,,0.00,meteohub,2013-02-22 21:20:00,
2013-02-22 16:25:00,32.4,28.6,-100.00,North,358,0.0,8.0,86,0.00,,,0.00,meteohub,2013-02-22 21:25:00,
2013-02-22 16:30:00,32.4,28.6,-100.00,ENE,76,1.0,8.0,86,0.00,,,0.00,meteohub,2013-02-22 21:30:00,
2013-02-22 16:35:00,32.4,28.6,-100.00,ENE,75,2.0,8.0,86,0.00,,,0.00,meteohub,2013-02-22 21:35:00,
2013-02-22 16:40:00,32.4,28.6,-100.00,East,99,3.0,7.0,86,0.00,,,0.00,meteohub,2013-02-22 21:40:00,
2013-02-22 16:45:00,32.5,28.8,-100.00,NE,34,0.0,6.0,86,0.00,,,0.00,meteohub,2013-02-22 21:45:00,
2013-02-22 16:50:00,32.5,28.6,-100.00,ENE,65,4.0,6.0,85,0.00,,,0.00,meteohub,2013-02-22 21:50:00,
2013-02-22 16:55:00,32.5,28.6,-100.00,ENE,58,2.0,6.0,85,0.00,,,0.00,meteohub,2013-02-22 21:55:00,
2013-02-22 17:00:00,32.5,28.6,-100.00,ENE,71,1.0,6.0,85,0.00,,,0.00,meteohub,2013-02-22 22:00:00,
2013-02-22 17:05:00,32.5,28.8,-100.00,East,98,2.0,6.0,86,0.00,,,0.00,meteohub,2013-02-22 22:05:00,
2013-02-22 17:10:00,32.5,28.8,-100.00,ENE,75,0.0,5.0,86,0.00,,,0.00,meteohub,2013-02-22 22:10:00,
2013-02-22 17:15:00,32.5,28.8,-100.00,East,80,1.0,5.0,86,0.00,,,0.00,meteohub,2013-02-22 22:15:00,
2013-02-22 17:20:00,32.4,28.9,-100.00,SE,131,2.0,5.0,87,0.00,,,0.00,meteohub,2013-02-22 22:20:00,
2013-02-22 17:25:00,32.4,28.9,-100.00,NW,305,0.0,5.0,87,0.00,,,0.00,meteohub,2013-02-22 22:25:00,
2013-02-22 17:30:00,32.4,28.9,-100.00,NE,51,0.0,5.0,87,0.00,,,0.00,meteohub,2013-02-22 22:30:00,
2013-02-22 17:35:00,32.4,28.9,-100.00,East,96,1.0,5.0,87,0.00,,,0.00,meteohub,2013-02-22 22:35:00,
2013-02-22 17:40:00,32.4,28.9,-100.00,NNE,31,2.0,5.0,87,0.00,,,0.00,meteohub,2013-02-22 22:40:00,
2013-02-22 17:45:00,32.4,28.9,-100.00,East,101,2.0,5.0,87,0.00,,,0.00,meteohub,2013-02-22 22:45:00,
2013-02-22 17:51:00,32.5,28.8,-100.00,East,94,3.0,5.0,86,0.00,,,0.00,meteohub,2013-02-22 22:51:00,
2013-02-22 17:56:00,32.5,28.8,-100.00,NE,44,3.0,6.0,86,0.00,,,0.00,meteohub,2013-02-22 22:56:00,
2013-02-22 18:01:00,32.7,28.9,-100.00,NE,49,2.0,6.0,86,0.00,,,0.00,meteohub,2013-02-22 23:01:00,
2013-02-22 18:06:00,32.7,28.9,-100.00,East,80,1.0,6.0,86,0.00,,,0.00,meteohub,2013-02-22 23:06:00,
2013-02-22 18:11:00,32.7,28.9,-100.00,ENE,74,1.0,5.0,86,0.00,,,0.00,meteohub,2013-02-22 23:11:00,
2013-02-22 18:16:00,32.7,28.9,-100.00,ESE,109,0.0,5.0,86,0.00,,,0.00,meteohub,2013-02-22 23:16:00,
2013-02-22 18:21:00,32.7,28.9,-100.00,East,82,2.0,5.0,86,0.00,,,0.00,meteohub,2013-02-22 23:21:00,
2013-02-22 18:26:00,32.7,29.3,-100.00,NE,37,0.0,3.0,87,0.00,,,0.00,meteohub,2013-02-22 23:26:00,
2013-02-22 18:31:00,32.7,29.3,-100.00,East,82,0.0,3.0,87,0.00,,,0.00,meteohub,2013-02-22 23:31:00,
2013-02-22 18:36:00,32.7,29.3,-100.00,ENE,75,0.0,3.0,87,0.00,,,0.00,meteohub,2013-02-22 23:36:00,
2013-02-22 18:41:00,32.7,29.3,-100.00,NE,40,0.0,3.0,87,0.00,,,0.00,meteohub,2013-02-22 23:41:00,
2013-02-22 18:46:00,32.7,29.3,-100.00,East,79,0.0,2.0,87,0.00,,,0.00,meteohub,2013-02-22 23:46:00,
2013-02-22 18:51:00,32.7,29.3,-100.00,ENE,78,0.0,2.0,87,0.00,,,0.00,meteohub,2013-02-22 23:51:00,
2013-02-22 18:56:00,32.7,29.3,-100.00,ENE,63,0.0,1.0,87,0.00,,,0.00,meteohub,2013-02-22 23:56:00,
2013-02-22 19:01:00,32.9,29.5,-100.00,NE,56,0.0,2.0,87,0.00,,,0.00,meteohub,2013-02-23 00:01:00,
2013-02-22 19:06:00,32.9,29.5,-100.00,NE,56,0.0,2.0,87,0.00,,,0.00,meteohub,2013-02-23 00:06:00,
2013-02-22 19:11:00,32.9,29.5,-100.00,NE,39,0.0,2.0,87,0.00,,,0.00,meteohub,2013-02-23 00:11:00,
2013-02-22 19:16:00,33.1,29.3,-100.00,NE,42,0.0,2.0,86,0.00,,,0.00,meteohub,2013-02-23 00:16:00,
2013-02-22 19:21:00,33.1,29.3,-100.00,North,2,0.0,2.0,86,0.00,,,0.00,meteohub,2013-02-23 00:21:00,
2013-02-22 19:26:00,33.1,29.3,-100.00,NE,41,0.0,2.0,86,0.00,,,0.00,meteohub,2013-02-23 00:26:00,
2013-02-22 19:31:00,33.3,29.5,-100.00,NE,41,1.0,1.0,86,0.00,,,0.00,meteohub,2013-02-23 00:31:00,
2013-02-22 19:36:00,33.3,29.8,-100.00,NE,42,0.0,1.0,87,0.00,,,0.00,meteohub,2013-02-23 00:36:00,
2013-02-22 19:41:00,33.1,29.7,-100.00,NE,42,0.0,1.0,87,0.00,,,0.00,meteohub,2013-02-23 00:41:00,
2013-02-22 19:46:00,32.9,29.7,-100.00,NE,43,1.0,1.0,88,0.00,,,0.00,meteohub,2013-02-23 00:46:00,
2013-02-22 19:51:00,32.9,29.7,-100.00,NE,42,0.0,1.0,88,0.00,,,0.00,meteohub,2013-02-23 00:51:00,
2013-02-22 19:56:00,32.7,29.8,-100.00,NE,41,0.0,1.0,89,0.00,,,0.00,meteohub,2013-02-23 00:56:00,
2013-02-22 20:01:00,32.5,30.0,-100.00,NE,40,0.0,1.0,90,0.00,,,0.00,meteohub,2013-02-23 01:01:00,
2013-02-22 20:06:00,32.5,30.0,-100.00,NE,40,0.0,1.0,90,0.00,,,0.00,meteohub,2013-02-23 01:06:00,
2013-02-22 20:11:00,32.4,30.0,-100.00,NE,41,0.0,1.0,91,0.00,,,0.00,meteohub,2013-02-23 01:11:00,
2013-02-22 20:16:00,32.4,30.0,-100.00,NNE,23,0.0,1.0,91,0.00,,,0.00,meteohub,2013-02-23 01:16:00,
2013-02-22 20:22:00,32.4,30.0,-100.00,NNE,23,0.0,1.0,91,0.00,,,0.00,meteohub,2013-02-23 01:22:00,
2013-02-22 20:27:00,32.4,30.0,-100.00,NNE,23,0.0,1.0,91,0.00,,,0.00,meteohub,2013-02-23 01:27:00,
2013-02-22 20:32:00,32.4,30.0,-100.00,NNE,23,0.0,1.0,91,0.00,,,0.00,meteohub,2013-02-23 01:32:00,
2013-02-22 20:37:00,32.4,30.4,-100.00,NNE,23,0.0,1.0,92,0.00,,,0.00,meteohub,2013-02-23 01:37:00,
2013-02-22 20:42:00,32.4,30.4,-100.00,NNE,23,0.0,1.0,92,0.00,,,0.00,meteohub,2013-02-23 01:42:00,
2013-02-22 20:47:00,32.4,30.4,-100.00,NNE,23,0.0,1.0,92,0.00,,,0.00,meteohub,2013-02-23 01:47:00,
2013-02-22 20:52:00,32.4,30.4,-100.00,NNE,23,0.0,0.0,92,0.00,,,0.00,meteohub,2013-02-23 01:52:00,
2013-02-22 20:57:00,32.4,30.4,-100.00,NNE,23,0.0,0.0,92,0.00,,,0.00,meteohub,2013-02-23 01:57:00,
2013-02-22 21:02:00,32.4,30.4,-100.00,NNE,23,0.0,0.0,92,0.00,,,0.00,meteohub,2013-02-23 02:02:00,
2013-02-22 21:07:00,32.4,30.4,-100.00,ENE,67,0.0,0.0,92,0.00,,,0.00,meteohub,2013-02-23 02:07:00,
2013-02-22 21:12:00,32.7,30.7,-100.00,ENE,71,0.0,1.0,92,0.00,,,0.00,meteohub,2013-02-23 02:12:00,
2013-02-22 21:17:00,33.1,31.1,-100.00,East,81,0.0,1.0,92,0.00,,,0.00,meteohub,2013-02-23 02:17:00,
2013-02-22 21:22:00,33.4,31.1,-100.00,ENE,77,0.0,1.0,91,0.00,,,0.00,meteohub,2013-02-23 02:22:00,
2013-02-22 21:27:00,33.6,30.9,-100.00,East,98,0.0,1.0,90,0.00,,,0.00,meteohub,2013-02-23 02:27:00,
2013-02-22 21:32:00,34.2,31.3,-100.00,ESE,110,0.0,2.0,89,0.00,,,0.00,meteohub,2013-02-23 02:32:00,
2013-02-22 21:37:00,34.5,31.3,-100.00,East,91,0.0,2.0,88,0.00,,,0.00,meteohub,2013-02-23 02:37:00,
2013-02-22 21:42:00,34.9,31.5,-100.00,ESE,107,0.0,2.0,87,0.00,,,0.00,meteohub,2013-02-23 02:42:00,
2013-02-22 21:47:00,35.1,31.6,-100.00,East,93,0.0,2.0,87,0.00,,,0.00,meteohub,2013-02-23 02:47:00,
2013-02-22 21:52:00,35.1,31.6,-100.00,East,92,0.0,2.0,87,0.00,,,0.00,meteohub,2013-02-23 02:52:00,
2013-02-22 21:57:00,35.2,31.5,-100.00,East,92,0.0,2.0,86,0.00,,,0.00,meteohub,2013-02-23 02:57:00,
2013-02-22 22:02:00,35.2,31.5,-100.00,East,91,0.0,1.0,86,0.00,,,0.00,meteohub,2013-02-23 03:02:00,
2013-02-22 22:07:00,35.2,31.5,-100.00,ESE,107,1.0,1.0,86,0.00,,,0.00,meteohub,2013-02-23 03:07:00,
2013-02-22 22:13:00,35.6,31.8,-100.00,SE,130,1.0,2.0,86,0.00,,,0.00,meteohub,2013-02-23 03:13:00,
2013-02-22 22:17:00,35.8,31.6,-100.00,ESE,117,3.0,4.0,85,0.00,,,0.00,meteohub,2013-02-23 03:17:00,
2013-02-22 22:23:00,36.0,31.8,-100.00,SE,136,2.0,5.0,85,0.00,,,0.00,meteohub,2013-02-23 03:23:00,
2013-02-22 22:28:00,36.0,31.8,-100.00,SE,142,3.0,5.0,85,0.00,,,0.00,meteohub,2013-02-23 03:28:00,
2013-02-22 22:33:00,36.0,31.8,-100.00,SE,139,1.0,5.0,85,0.00,,,0.00,meteohub,2013-02-23 03:33:00,
2013-02-22 22:38:00,36.1,32.0,-100.00,SSE,160,3.0,6.0,85,0.00,,,0.00,meteohub,2013-02-23 03:38:00,
2013-02-22 22:43:00,36.1,31.8,-100.00,SE,145,3.0,6.0,84,0.00,,,0.00,meteohub,2013-02-23 03:43:00,
2013-02-22 22:48:00,36.3,32.0,-100.00,SE,142,5.0,6.0,84,0.00,,,0.00,meteohub,2013-02-23 03:48:00,
2013-02-22 22:53:00,36.3,32.0,-100.00,SSE,152,6.0,6.0,84,0.00,,,0.00,meteohub,2013-02-23 03:53:00,
2013-02-22 22:58:00,36.3,32.0,-100.00,SSE,154,6.0,8.0,84,0.00,,,0.00,meteohub,2013-02-23 03:58:00,
2013-02-22 23:03:00,36.3,32.0,-100.00,SE,129,5.0,10.0,84,0.00,,,0.00,meteohub,2013-02-23 04:03:00,
2013-02-22 23:08:00,36.5,31.8,-100.00,SSE,153,8.0,10.0,83,0.00,,,0.00,meteohub,2013-02-23 04:08:00,
2013-02-22 23:13:00,36.7,32.0,-100.00,SE,139,8.0,12.0,83,0.00,,,0.00,meteohub,2013-02-23 04:13:00,
2013-02-22 23:18:00,36.5,31.8,-100.00,SE,130,8.0,12.0,83,0.00,,,0.00,meteohub,2013-02-23 04:18:00,
2013-02-22 23:23:00,36.5,31.8,-100.00,SSE,158,6.0,12.0,83,0.00,,,0.00,meteohub,2013-02-23 04:23:00,
2013-02-22 23:28:00,36.5,32.2,-100.00,ESE,115,8.0,12.0,84,0.00,,,0.00,meteohub,2013-02-23 04:28:00,
2013-02-22 23:33:00,36.3,32.0,-100.00,SE,134,3.0,11.0,84,0.00,,,0.00,meteohub,2013-02-23 04:33:00,
2013-02-22 23:38:00,36.3,32.0,-100.00,South,172,6.0,11.0,84,0.00,,,0.00,meteohub,2013-02-23 04:38:00,
2013-02-22 23:43:00,36.1,31.8,-100.00,SE,139,4.0,10.0,84,0.00,,,0.00,meteohub,2013-02-23 04:43:00,
2013-02-22 23:48:00,36.1,31.8,-100.00,SE,136,6.0,10.0,84,0.00,,,0.00,meteohub,2013-02-23 04:48:00,
2013-02-22 23:53:00,36.1,31.8,-100.00,SE,129,3.0,8.0,84,0.00,,,0.00,meteohub,2013-02-23 04:53:00,
2013-02-22 23:58:00,36.1,31.8,-100.00,SE,146,3.0,8.0,84,0.00,,,0.00,meteohub,2013-02-23 04:58:00,